Location: Newark
(60.1950°N, 25.0308°E)
Time: 22:12:33
(UTC+00:00)

N. Korean satellite - Visible Passes

Search period start: 15 October 2019 00:00
Search period end: 25 October 2019 00:00
Orbit: 455 x 508 km, 97.2° (Epoch: 14 October)

Date Brightness Start Highest point End Pass type
(mag) Time Alt. Az. Time Alt. Az. Time Alt. Az.
15 Oct 9.1 03:44:29 10° NE 03:47:32 26° E 03:50:36 10° SSE visible
15 Oct 9.3 16:03:11 10° SSW 16:06:04 25° W 16:09:00 10° NW visible
16 Oct 10.0 03:19:39 10° NE 03:22:01 17° E 03:24:23 10° SE visible
17 Oct 10.5 02:55:49 10° ENE 02:56:25 10° E 02:57:01 10° E visible
17 Oct 10.4 16:48:17 10° W 16:49:20 11° W 16:50:22 10° WNW visible
18 Oct 8.4 04:01:48 10° NNE 04:05:09 37° E 04:08:33 10° SSE visible
18 Oct 9.9 16:21:17 10° SW 16:23:43 18° W 16:26:11 10° NW visible
19 Oct 9.4 03:36:45 10° NE 03:39:42 23° E 03:42:38 10° SSE visible
19 Oct 8.9 15:55:09 10° SSW 15:58:12 29° W 16:01:18 10° NNW visible
20 Oct 10.1 03:12:02 10° NE 03:14:08 15° E 03:16:15 10° ESE visible
21 Oct 7.5 04:19:11 10° NNE 04:22:43 54° ESE 04:26:18 10° S visible
21 Oct 10.2 16:39:44 10° WSW 16:41:24 13° W 16:43:06 10° NW visible
22 Oct 8.7 03:54:00 10° NNE 03:57:18 32° E 04:00:37 10° SSE visible
22 Oct 9.6 16:13:08 10° SW 16:15:49 21° W 16:18:32 10° NW visible
23 Oct 9.6 03:29:01 10° NE 03:31:48 20° E 03:34:36 10° SE visible
23 Oct 8.5 15:47:07 10° SSW 15:50:18 34° W 15:53:33 10° NNW visible
24 Oct 10.2 03:04:26 10° NE 03:06:12 13° E 03:07:58 10° ESE visible
24 Oct 6.8 04:36:36 10° NNE 04:40:14 80° ESE 04:43:55 10° SSW visible
24 Oct 7.3 15:21:26 10° S 15:24:51 58° WSW 15:28:22 10° NNW visible
